sat.trackr.live / text

‹ back to catalog

STARLINK-4006

NORAD 52676 · 2022-053W

PAYLOAD ACTIVE UNKNOWN

§ Identity

Operator
Country
US
Launch date
2022-05-18
Launch site
AFETR
Launch vehicle
Mass (kg)
RCS (m²)

Purposes: comms

External: N2YO · Heavens-Above · Gunter

§ Orbital elements

Epoch: 2026-05-25T01:56:16.801728Z

Period
95.44 min
Inclination
53.2145°
Eccentricity
0.0001064
Mean motion
15.08838268 rev/d
Perigee alt
539.0 km
Apogee alt
540.5 km
Semi-major
6,917.9 km
B*
-1.9680e-5
RAAN
171.1875°
Arg perigee
79.4793°
Mean anomaly
280.6319°
Rev number
22,257

§ Raw data

STARLINK-40061 52676U 22053W   26145.08075002 -.00000601  00000+0 -19680-4 0  99942 52676  53.2145 171.1875 0001064  79.4793 280.6319 15.08838268222574

JSON: /api/v1/satellites/52676 · /tle

For live sub-satellite position, see the globe view (requires WebGL).

§ Visibility from observer

Set your observer location to see the next 7 days of passes ≥ 10°. The values pass through the URL so the page stays shareable.

No JS? Fill the form by hand. The geolocation button needs JavaScript.